Change the Weather History Date:

Saturday, May 18, 2013

  Actual Average Record
Temperature  
Mean Temperature 78 °F 73 °F  
Max Temperature 84 °F 85 °F 97 °F (1962)
Min Temperature 71 °F 61 °F 42 °F (2011)
Cooling Degree Days 13 8  
Month to date cooling degree days 69 109  
Year to date cooling degree days 201 210  
Growing Degree Days 28 (Base 50)    
Moisture  
Dew Point 69 °F    
Average Humidity 73    
Maximum Humidity 84    
Minimum Humidity 61    
Precipitation  
Precipitation T in 0.11 in 2.32 in (1986)
Month to date precipitation 1.62 2.09  
Year to date precipitation 25.70 21.99  
Sea Level Pressure  
Sea Level Pressure 30.04 in    
Wind  
Wind Speed 6 mph (South)    
Max Wind Speed 13 mph    
Max Gust Speed 17 mph    
Visibility 10 miles    
Events Rain    
T = Trace of Precipitation, MM = Missing Value Source: NWS Daily Summary

Daily Weather History Graph

Daily Weather History Graph

Search for Another Location

Airport or City:

Trip Planner

Search our weather history database for the weather conditions in past years. The results will help you decide how hot, cold, wet, or windy it might be!

Date:

Astronomy

May. 18, 2013 Rise Set
Actual Time 5:45 AM CDT 7:38 PM CDT
Civil Twilight 5:18 AM CDT 8:06 PM CDT
Nautical Twilight 4:45 AM CDT 8:39 PM CDT
Astronomical Twilight 4:10 AM CDT 9:14 PM CDT
Moon 1:04 PM CDT (5/18) 1:13 AM CDT (5/18)
Length of Visible Light 14h 47m
Length of Day
13h 53m
First Quarter, 55% of the Moon is Illuminated
May 18
First Quarter
May 24
Full
May 31
Last Quarter
Jun 8
New
Jun 16
First Quarter

Hourly Weather History & Observations

Time (CDT) Temp. Heat Index Dew Point Humidity Pressure Visibility Wind Dir Wind Speed Gust Speed Precip Events Conditions
12:53 AM 73.0 °F - 66.0 °F 79% 30.03 in 10.0 mi SSW 4.6 mph - N/A   Clear
1:53 AM 72.0 °F - 66.9 °F 84% 30.01 in 10.0 mi South 4.6 mph - N/A   Mostly Cloudy
2:53 AM 71.1 °F - 66.0 °F 84% 30.01 in 10.0 mi South 5.8 mph - N/A   Scattered Clouds
3:53 AM 71.1 °F - 66.0 °F 84% 30.01 in 10.0 mi South 4.6 mph - N/A   Mostly Cloudy
4:35 AM 71.6 °F - 66.2 °F 83% 30.02 in 10.0 mi SSE 4.6 mph - N/A   Mostly Cloudy
4:53 AM 72.0 °F - 66.0 °F 81% 30.03 in 10.0 mi Calm Calm - N/A   Overcast
5:28 AM 71.6 °F - 66.2 °F 83% 30.04 in 10.0 mi SE 5.8 mph - N/A   Mostly Cloudy
5:53 AM 71.1 °F - 66.9 °F 87% 30.05 in 10.0 mi South 3.5 mph - N/A   Mostly Cloudy
6:08 AM 71.6 °F - 66.2 °F 83% 30.06 in 9.0 mi South 3.5 mph - N/A   Overcast
6:25 AM 71.6 °F - 66.2 °F 83% 30.07 in 9.0 mi Variable 3.5 mph - N/A   Overcast
6:53 AM 72.0 °F - 66.9 °F 84% 30.06 in 9.0 mi South 3.5 mph - N/A   Overcast
7:53 AM 73.0 °F - 66.9 °F 81% 30.08 in 10.0 mi South 4.6 mph - N/A   Overcast
8:46 AM 73.4 °F - 68.0 °F 83% 30.08 in 9.0 mi SSW 8.1 mph - N/A   Overcast
8:53 AM 73.9 °F - 68.0 °F 82% 30.07 in 8.0 mi SSW 9.2 mph - 0.00 in Rain Light Rain
9:37 AM 75.2 °F - 68.0 °F 78% 30.08 in 10.0 mi SSW 6.9 mph - 0.00 in   Mostly Cloudy
9:53 AM 77.0 °F - 69.1 °F 76% 30.08 in 10.0 mi SSW 8.1 mph - 0.00 in   Overcast
10:10 AM 77.0 °F - 69.8 °F 78% 30.09 in 10.0 mi SSW 4.6 mph - N/A   Overcast
10:29 AM 77.0 °F - 69.8 °F 78% 30.10 in 10.0 mi South 5.8 mph - N/A   Overcast
10:53 AM 78.1 °F - 69.1 °F 74% 30.09 in 10.0 mi South 3.5 mph - N/A   Overcast
11:53 AM 78.1 °F - 69.1 °F 74% 30.09 in 10.0 mi South 5.8 mph - N/A   Overcast
12:31 PM 78.8 °F - 69.8 °F 74% 30.08 in 10.0 mi South 6.9 mph - N/A   Mostly Cloudy
12:53 PM 80.1 °F 82.9 °F 69.1 °F 69% 30.07 in 10.0 mi SSW 5.8 mph - N/A   Overcast
1:53 PM 80.6 °F 83.9 °F 69.8 °F 70% 30.06 in 10.0 mi South 6.9 mph - N/A   Overcast
2:00 PM 82.4 °F 86.3 °F 69.8 °F 66% 30.06 in 10.0 mi South 8.1 mph - N/A   Mostly Cloudy
2:53 PM 82.0 °F 85.9 °F 70.0 °F 67% 30.04 in 10.0 mi South 5.8 mph - N/A   Scattered Clouds
3:08 PM 82.4 °F 86.3 °F 69.8 °F 66% 30.04 in 10.0 mi SSW 5.8 mph - N/A   Mostly Cloudy
3:53 PM 84.0 °F 88.4 °F 70.0 °F 63% 30.02 in 10.0 mi South 8.1 mph - N/A   Mostly Cloudy
4:00 PM 82.4 °F 86.3 °F 69.8 °F 66% 30.02 in 10.0 mi South 8.1 mph - N/A   Scattered Clouds
4:53 PM 84.0 °F 89.0 °F 71.1 °F 65% 30.01 in 10.0 mi SSE 8.1 mph - N/A   Mostly Cloudy
5:53 PM 82.9 °F 87.0 °F 70.0 °F 65% 30.00 in 10.0 mi SSE 6.9 mph - N/A   Partly Cloudy
6:53 PM 79.0 °F - 70.0 °F 74% 30.00 in 10.0 mi SSE 5.8 mph - N/A   Clear
7:53 PM 77.0 °F - 70.0 °F 79% 30.01 in 10.0 mi SE 5.8 mph - N/A   Scattered Clouds
8:53 PM 75.9 °F - 70.0 °F 82% 30.01 in 10.0 mi SE 4.6 mph - N/A   Scattered Clouds
9:53 PM 75.9 °F - 70.0 °F 82% 30.02 in 10.0 mi East 4.6 mph - 0.00 in   Overcast
10:53 PM 75.0 °F - 70.0 °F 84% 30.02 in 10.0 mi SE 5.8 mph - N/A   Mostly Cloudy
11:53 PM 75.0 °F - 69.1 °F 82% 30.02 in 10.0 mi South 6.9 mph - N/A   Scattered Clouds